Hourly Weather Bolshoy Kon

Today, 1 August, Sunday

Time Temperature Precipitation Wind Pressure Humidity
00:00 +20°C° 0 mm 1 mps 740 mmHg 65%
01:00 +19°C° 0 mm 1 mps 740 mmHg 66%
02:00 +19°C° 0 mm 1 mps 740 mmHg 66%
03:00 +19°C° 0 mm 1 mps 740 mmHg 68%
04:00 +19°C° 0 mm 2 mps 740 mmHg 70%
05:00 +19°C° 0 mm 2 mps 740 mmHg 72%
06:00 +21°C° 0 mm 2 mps 740 mmHg 67%
07:00 +24°C° 0 mm 3 mps 740 mmHg 62%
08:00 +26°C° 0 mm 3 mps 741 mmHg 57%
09:00 +28°C° 0 mm 4 mps 740 mmHg 52%
10:00 +29°C° 0 mm 4 mps 740 mmHg 48%
11:00 +30°C° 0 mm 4 mps 740 mmHg 43%
12:00 +32°C° 0 mm 4 mps 740 mmHg 41%
13:00 +32°C° 0 mm 5 mps 740 mmHg 38%
14:00 +33°C° 0 mm 5 mps 740 mmHg 36%
15:00 +32°C° 0 mm 4 mps 740 mmHg 39%
16:00 +30°C° 0 mm 4 mps 740 mmHg 43%
17:00 +30°C° 0 mm 3 mps 740 mmHg 46%
18:00 +28°C° 0 mm 3 mps 739 mmHg 50%
19:00 +26°C° 0 mm 2 mps 739 mmHg 54%
20:00 +25°C° 0 mm 2 mps 739 mmHg 58%
21:00 +24°C° 0 mm 2 mps 739 mmHg 59%
22:00 +24°C° 0 mm 2 mps 739 mmHg 60%
23:00 +22°C° 0 mm 3 mps 739 mmHg 60%

Tomorrow, 2 August, Monday

Time Temperature Precipitation Wind Pressure Humidity
00:00 +21°C° 0.1 mm 2 mps 739 mmHg 65%
01:00 +21°C° 0.1 mm 2 mps 739 mmHg 70%
02:00 +21°C° 0.1 mm 1 mps 739 mmHg 75%
03:00 +21°C° 0.2 mm 1 mps 739 mmHg 77%
04:00 +20°C° 0.2 mm 2 mps 739 mmHg 79%
05:00 +20°C° 0.2 mm 2 mps 739 mmHg 81%
06:00 +21°C° 0.5 mm 3 mps 739 mmHg 78%
07:00 +22°C° 0.5 mm 3 mps 739 mmHg 76%
08:00 +24°C° 0.5 mm 3 mps 739 mmHg 73%
09:00 +27°C° 0 mm 4 mps 738 mmHg 64%
10:00 +29°C° 0 mm 5 mps 738 mmHg 54%
11:00 +32°C° 0 mm 5 mps 738 mmHg 45%
12:00 +33°C° 0 mm 6 mps 738 mmHg 43%
13:00 +34°C° 0 mm 7 mps 737 mmHg 41%
14:00 +34°C° 0 mm 8 mps 737 mmHg 39%
15:00 +34°C° 0 mm 6 mps 736 mmHg 42%
16:00 +33°C° 0 mm 5 mps 736 mmHg 45%
17:00 +33°C° 0 mm 4 mps 735 mmHg 48%
18:00 +29°C° 0.1 mm 5 mps 735 mmHg 54%
19:00 +27°C° 0.1 mm 7 mps 736 mmHg 60%
20:00 +24°C° 0.1 mm 9 mps 736 mmHg 66%
21:00 +22°C° 0.4 mm 8 mps 736 mmHg 73%
22:00 +21°C° 0.4 mm 7 mps 736 mmHg 81%
23:00 +19°C° 0.4 mm 6 mps 736 mmHg 88%

Day after tomorrow, 3 August, Tuesday

Time Temperature Precipitation Wind Pressure Humidity
00:00 +19°C° 0 mm 5 mps 736 mmHg 90%
01:00 +19°C° 0 mm 5 mps 736 mmHg 91%
02:00 +18°C° 0 mm 4 mps 736 mmHg 92%
03:00 +18°C° 0 mm 4 mps 736 mmHg 93%
04:00 +18°C° 0 mm 4 mps 736 mmHg 93%
05:00 +18°C° 0 mm 4 mps 736 mmHg 94%
06:00 +19°C° 0 mm 5 mps 737 mmHg 88%
07:00 +20°C° 0 mm 5 mps 737 mmHg 81%
08:00 +21°C° 0 mm 6 mps 737 mmHg 74%
09:00 +21°C° 0.1 mm 6 mps 738 mmHg 74%
10:00 +21°C° 0.1 mm 5 mps 738 mmHg 73%
11:00 +20°C° 0.1 mm 5 mps 739 mmHg 73%
12:00 +21°C° 0.1 mm 6 mps 739 mmHg 66%
13:00 +22°C° 0.1 mm 6 mps 739 mmHg 60%
14:00 +23°C° 0.1 mm 6 mps 739 mmHg 53%
15:00 +23°C° 0.1 mm 5 mps 739 mmHg 56%
16:00 +22°C° 0.1 mm 5 mps 740 mmHg 59%
17:00 +22°C° 0.1 mm 4 mps 740 mmHg 62%
18:00 +20°C° 0 mm 4 mps 740 mmHg 70%
19:00 +19°C° 0 mm 3 mps 740 mmHg 78%
20:00 +17°C° 0 mm 3 mps 741 mmHg 86%
21:00 +17°C° 0 mm 3 mps 741 mmHg 87%
22:00 +16°C° 0 mm 2 mps 741 mmHg 88%
23:00 +15°C° 0 mm 2 mps 742 mmHg 89%

4 August, Wednesday

Time Temperature Precipitation Wind Pressure Humidity
00:00 +16°C° 0 mm 2 mps 742 mmHg 87%
01:00 +16°C° 0 mm 2 mps 742 mmHg 84%
02:00 +16°C° 0 mm 2 mps 742 mmHg 82%
03:00 +16°C° 0 mm 2 mps 742 mmHg 81%
04:00 +16°C° 0 mm 2 mps 743 mmHg 81%
05:00 +16°C° 0 mm 2 mps 743 mmHg 80%
06:00 +17°C° 0 mm 2 mps 743 mmHg 73%
07:00 +19°C° 0 mm 2 mps 743 mmHg 67%
08:00 +20°C° 0 mm 3 mps 744 mmHg 61%
09:00 +21°C° 0 mm 3 mps 744 mmHg 54%
10:00 +22°C° 0 mm 3 mps 744 mmHg 48%
11:00 +25°C° 0 mm 3 mps 744 mmHg 41%
12:00 +23°C° 0 mm 4 mps 744 mmHg 42%
13:00 +23°C° 0 mm 4 mps 744 mmHg 42%
14:00 +23°C° 0 mm 5 mps 744 mmHg 43%
15:00 +23°C° 0 mm 4 mps 744 mmHg 47%
16:00 +22°C° 0 mm 3 mps 744 mmHg 50%
17:00 +23°C° 0 mm 2 mps 744 mmHg 54%
18:00 +21°C° 0 mm 2 mps 744 mmHg 55%
19:00 +20°C° 0 mm 2 mps 745 mmHg 56%
20:00 +21°C° 0 mm 1 mps 745 mmHg 57%
21:00 +20°C° 0 mm 1 mps 745 mmHg 59%
22:00 +18°C° 0 mm 2 mps 745 mmHg 62%
23:00 +17°C° 0 mm 2 mps 745 mmHg 64%

5 August, Thursday

Time Temperature Precipitation Wind Pressure Humidity
00:00 +17°C° 0 mm 2 mps 745 mmHg 67%
01:00 +16°C° 0 mm 1 mps 745 mmHg 71%
02:00 +15°C° 0 mm 1 mps 745 mmHg 74%
03:00 +15°C° 0 mm 1 mps 745 mmHg 73%
04:00 +15°C° 0 mm 1 mps 745 mmHg 73%
05:00 +15°C° 0 mm 1 mps 745 mmHg 73%
06:00 +18°C° 0 mm 1 mps 745 mmHg 66%
07:00 +19°C° 0 mm 2 mps 746 mmHg 59%
08:00 +21°C° 0 mm 2 mps 746 mmHg 52%
09:00 +24°C° 0 mm 2 mps 745 mmHg 48%
10:00 +25°C° 0 mm 2 mps 745 mmHg 43%
11:00 +26°C° 0 mm 3 mps 745 mmHg 38%
12:00 +27°C° 0 mm 3 mps 745 mmHg 37%
13:00 +27°C° 0 mm 3 mps 744 mmHg 36%
14:00 +28°C° 0 mm 3 mps 744 mmHg 35%
15:00 +27°C° 0 mm 3 mps 744 mmHg 38%
16:00 +26°C° 0 mm 2 mps 744 mmHg 42%
17:00 +26°C° 0 mm 2 mps 743 mmHg 45%
18:00 +25°C° 0 mm 2 mps 743 mmHg 47%
19:00 +24°C° 0 mm 2 mps 743 mmHg 48%
20:00 +23°C° 0 mm 2 mps 743 mmHg 49%
21:00 +23°C° 0 mm 2 mps 742 mmHg 49%
22:00 +22°C° 0 mm 3 mps 742 mmHg 49%
23:00 +21°C° 0 mm 3 mps 742 mmHg 48%

6 August, Friday

Time Temperature Precipitation Wind Pressure Humidity
00:00 +21°C° 0 mm 3 mps 742 mmHg 49%
01:00 +20°C° 0 mm 3 mps 742 mmHg 49%
02:00 +20°C° 0 mm 4 mps 742 mmHg 49%
03:00 +20°C° 0 mm 4 mps 742 mmHg 49%
04:00 +20°C° 0 mm 4 mps 741 mmHg 48%
05:00 +20°C° 0 mm 5 mps 741 mmHg 48%
06:00 +21°C° 0 mm 5 mps 741 mmHg 47%
07:00 +23°C° 0 mm 6 mps 741 mmHg 46%
08:00 +24°C° 0 mm 6 mps 741 mmHg 44%
09:00 +27°C° 0 mm 6 mps 741 mmHg 41%
10:00 +28°C° 0 mm 6 mps 741 mmHg 37%
11:00 +30°C° 0 mm 7 mps 740 mmHg 33%
12:00 +32°C° 0 mm 7 mps 740 mmHg 31%
13:00 +32°C° 0 mm 7 mps 740 mmHg 29%
14:00 +33°C° 0 mm 7 mps 740 mmHg 27%
15:00 +33°C° 0 mm 7 mps 739 mmHg 29%
16:00 +32°C° 0 mm 6 mps 739 mmHg 31%
17:00 +30°C° 0 mm 5 mps 738 mmHg 32%
18:00 +29°C° 0 mm 5 mps 738 mmHg 33%
19:00 +28°C° 0 mm 5 mps 738 mmHg 34%
20:00 +27°C° 0 mm 5 mps 738 mmHg 35%
21:00 +26°C° 0 mm 4 mps 738 mmHg 37%
22:00 +26°C° 0 mm 4 mps 738 mmHg 38%
23:00 +25°C° 0 mm 4 mps 738 mmHg 39%
Show more

We Need Your Consent

Meteoprog and our Service Providers may store and access personal data such as cookies, device identifiers or other similar technologies on your device and process such data to personalise content and ads, as well as provide social media features and to analyse the traffic.

  • Store and/or access information on your device

    Cookies, device identifiers or other information can be stored or accessed on your device for the purposes indicated above.

  • Personalised ads and content, ad and content measurement, audience insights, and products development

    Ads and content can be personalised based on a profile. More data can be added to better personalise ads and content. Ad and content performance can be measured. Insights about the audience who saw the ads and content can be derived. Such data can be used to develop or improve user’s experience, systems and software.

By clicking ‘I Agree’ you will allow the use of indicated cookies, device identifiers, web beacons or other similar technologies. Your settings can be changed in the browser on your device.

For certain purposes, legitimate interests may be relied on, rather than consent. You can read more about this in our Privacy and Cookie Policy.